#timestamp,LO_Frequency,Hit,StdDev 
1510210815.7,286046992.9,N
1510210835.5,286046991.8,N
1510210855.4,286046992.5,N
1510210875.2,286046988.7,N
1510210895.0,286046987.9,N
1510210895.9,286046987.9,N
1510210915.8,286046987.5,N
1510210935.6,286046986.0,N
1510210955.4,286046985.8,N
1510210975.3,286046988.3,N
1510210995.1,286046989.4,N
1510210996.0,286046989.4,N
1510211015.8,286046994.4,N
1510211035.7,286046994.7,N
1510211055.5,286046991.7,N
1510211075.3,286046994.8,N
1510211095.2,286046997.9,N
1510211115.9,286046996.9,N
1510211135.7,286046995.2,N
1510211155.5,286046997.8,N
1510211175.4,286046998.9,N
1510211195.2,286046999.8,N
1510211215.0,286047002.2,N
1510211215.9,286047002.2,N
1510211235.8,286047004.2,N
1510211255.6,286047004.9,N
1510211275.4,286047006.3,N
1510211295.3,286047006.8,N
1510211315.1,286047008.4,N
1510211316.0,286047008.4,N
1510211335.8,286047007.6,N
1510211355.7,286047010.8,N
1510211375.5,286047011.8,N
1510211395.3,286047011.9,N
1510211415.2,286047009.8,N
1510211435.9,286047012.4,N
1510211455.7,286047013.2,N
1510211475.6,286047020.4,N
1510211495.4,286047023.4,N
1510211515.2,286047026.4,N
1510211535.1,286047029.8,Y
1510211536.0,286047029.8,P
1510211555.8,286047023.4,N
1510211575.6,286047018.4,N
1510211595.4,286047015.4,N
1510211615.3,286047012.8,N
1510211635.1,286047011.3,N
1510211655.8,286047006.8,N
1510211675.7,286047005.0,N
1510211695.5,286047001.8,N
1510211715.3,286046999.9,N
1510211735.2,286046998.2,N
1510211755.9,286046997.0,N
1510211775.7,286046995.5,N
1510211795.6,286046995.2,N
1510211815.4,286046993.9,N
1510211835.2,286046993.7,N
1510211855.1,286046994.5,N
1510211856.0,286046994.5,N
1510211875.8,286046995.2,N
1510211895.6,286046993.3,N
1510211915.4,286046994.6,N
1510211935.3,286046991.0,N
1510211955.1,286046991.4,N
1510211975.8,286046992.0,N
1510211995.7,286046993.1,N
1510212015.5,286046988.7,N
1510212035.3,286046987.2,N
1510212055.2,286046992.7,N
1510212075.9,286046991.6,N
1510212095.7,286046987.1,N
1510212115.6,286046986.4,N
1510212135.4,286046987.8,N
1510212155.2,286046984.2,N
1510212175.1,286046984.3,N
1510212176.0,286046984.3,N
1510212195.8,286046983.1,N
1510212215.6,286046986.3,N
1510212235.4,286046985.2,N
1510212255.3,286046980.6,Y
1510212275.1,286046991.2,P
1510212295.9,286046992.1,P
1510212315.7,286046990.5,P
1510212335.5,286046991.3,Y
1510212355.4,286046998.7,P
1510212375.2,286046994.9,N
1510212395.0,286046995.8,N
1510212395.9,286046995.8,N
1510212415.7,286046995.1,N
1510212435.6,286046995.5,N
1510212455.4,286046995.7,N
1510212475.2,286046995.4,N
1510212495.1,286046997.5,N
1510212496.0,286046997.5,N
1510212515.8,286046997.5,N
1510212535.6,286047000.8,N
1510212555.5,286046998.9,N
1510212575.3,286046993.4,Y
1510212595.1,286046999.3,P
1510212615.9,286046997.1,N
1510212635.7,286046996.7,N
1510212655.5,286046998.0,N
1510212675.4,286046993.3,Y
1510212695.2,286046998.4,P
1510212715.0,286047002.1,P
1510212715.9,286047002.1,N
1510212735.8,286047000.9,N
1510212755.6,286046998.4,N
1510212775.4,286046996.4,N
1510212795.3,286046997.9,N
1510212815.1,286046996.8,N
1510212816.0,286046996.8,N
1510212835.8,286046992.7,Y
1510212855.7,286046991.4,P
1510212875.5,286046992.9,N
1510212895.3,286046993.5,N
1510212915.2,286046994.6,N
1510212935.9,286046993.5,N
1510212955.7,286046991.7,Y
1510212975.6,286046998.6,P
1510212995.4,286046998.7,N
1510213015.2,286047000.0,N
1510213035.1,286047000.1,N
1510213036.0,286047000.1,N
1510213055.8,286047002.3,N
1510213075.6,286047000.5,N
1510213095.4,286047001.6,N
1510213115.3,286046998.5,N
1510213135.1,286047000.3,N
1510213155.8,286047000.0,N
1510213175.7,286046999.9,N
1510213195.5,286047000.7,N
1510213215.3,286046997.0,N
1510213235.2,286046996.7,N
1510213255.9,286046999.4,N
1510213275.7,286046997.8,N
1510213295.6,286046996.7,N
1510213315.4,286046996.9,N
1510213335.2,286047002.8,N
1510213355.1,286046999.7,N
1510213356.0,286046999.7,N
1510213375.8,286047000.9,N
1510213395.6,286046998.7,N
1510213415.4,286046998.1,N
1510213435.3,286046996.5,N
1510213455.1,286046995.8,N
1510213475.8,286046995.8,N
1510213495.7,286046993.3,Y
1510213515.5,286046994.3,P
1510213535.3,286046992.9,P
1510213555.2,286046994.6,N
1510213575.9,286046991.6,Y
1510213595.7,286046992.1,P
1510213615.6,286046997.7,N
1510213635.4,286046995.1,N
1510213655.2,286046996.4,N
1510213675.1,286046995.8,N
1510213676.0,286046995.8,N
1510213695.8,286046994.9,Y
1510213715.6,286047000.2,P
1510213735.5,286046998.5,N
1510213755.3,286047001.0,N
1510213775.1,286047001.1,N
1510213795.9,286046999.1,N
1510213815.7,286046998.1,N
1510213835.5,286047000.3,N
1510213855.4,286047001.2,N
1510213875.2,286046997.3,N
1510213895.0,286046993.3,Y
1510213895.9,286046993.3,P
1510213915.8,286046993.8,N
1510213935.6,286046999.6,N
1510213955.4,286046996.5,N
1510213975.3,286046997.5,N
1510213995.1,286046996.5,N
1510213996.0,286046996.5,N
1510214015.8,286047001.1,N
1510214035.6,286047002.4,N
1510214055.5,286047002.6,N
1510214075.3,286046998.8,N
1510214095.1,286046998.1,N
1510214115.9,286047000.3,N
1510214135.7,286046998.8,N
1510214155.5,286046996.6,N
1510214175.4,286046996.9,N
1510214195.2,286046998.9,N
1510214215.0,286046999.1,N
1510214215.9,286046999.1,N
1510214235.8,286047000.5,N
1510214255.6,286046998.7,N
1510214275.4,286046997.0,N
1510214295.2,286046995.4,N
1510214315.1,286046995.1,N
1510214316.0,286046995.1,N
1510214335.8,286046996.2,N
1510214355.6,286046998.0,N
1510214375.5,286046994.6,N
1510214395.3,286046995.7,N
